Location: Budapest
(47.4979°N, 19.0402°E)
Time: 22:18:53
(UTC+02:00)

Vanguard 1 - All Passes

Search period start: 22 April 2018 00:00
Search period end: 02 May 2018 00:00
Orbit: 650 x 3833 km, 34.2° (Epoch: 22 April)

Date Brightness Start Highest point End Pass type
(mag) Time Alt. Az. Time Alt. Az. Time Alt. Az.
22 Apr - 00:09:08 10° SSW 00:12:08 16° SSE 00:15:43 10° ESE night (unlit)
22 Apr - 02:26:37 10° SW 02:31:21 26° S 02:38:22 10° SE visible
22 Apr - 04:46:03 10° WSW 04:51:39 20° SSW 04:59:43 10° SSE visible
23 Apr - 00:29:19 10° SSW 00:32:42 19° SSE 00:36:55 10° ESE night (unlit)
23 Apr - 02:47:23 10° WSW 02:52:06 24° S 02:59:00 10° SE visible
23 Apr - 05:07:44 10° SW 05:12:33 16° SSW 05:18:57 10° SSE visible
24 Apr - 00:49:44 10° SW 00:53:19 21° S 00:57:54 10° ESE visible
24 Apr - 03:08:19 10° WSW 03:12:54 21° S 03:19:23 10° SE visible
24 Apr - 05:30:35 10° SW 05:33:28 12° SSW 05:36:48 10° S daylight
24 Apr - 22:53:31 10° S 22:54:58 11° SSE 22:56:29 10° SE night (unlit)
25 Apr - 01:10:19 10° SW 01:13:59 21° S 01:18:44 10° SE visible
25 Apr - 03:29:30 10° SW 03:33:43 18° SSW 03:39:24 10° SSE visible
25 Apr - 23:13:10 10° SSW 23:15:33 14° SSE 23:18:06 10° SE night (unlit)
26 Apr - 01:31:02 10° SW 01:34:41 20° S 01:39:23 10° SE visible
26 Apr - 03:51:07 10° SW 03:54:32 14° SSW 03:58:49 10° SSE visible
26 Apr - 23:33:22 10° SSW 23:36:10 16° S 23:39:13 10° SE night (unlit)
27 Apr - 01:51:56 10° SW 01:55:24 18° S 01:59:49 10° SE visible
27 Apr - 04:14:46 10° SSW 04:15:23 10° SSW 04:16:03 10° SSW visible
27 Apr - 23:53:51 10° SW 23:56:48 17° S 00:00:05 10° SE night (unlit)
28 Apr - 02:13:05 10° SW 02:16:09 15° S 02:19:54 10° SSE visible
28 Apr - 21:56:31 10° S 21:58:21 12° SSE 22:00:07 10° SE visible
29 Apr - 00:14:30 10° SW 00:17:27 17° S 00:20:46 10° SE night (unlit)
29 Apr - 02:34:46 10° SW 02:36:54 12° SSW 02:39:20 10° S visible
29 Apr - 22:16:27 10° SSW 22:19:00 14° S 22:21:27 10° SE visible
30 Apr - 00:35:22 10° SW 00:38:07 16° S 00:41:14 10° SSE night (unlit)
30 Apr - 22:36:47 10° SW 22:39:39 16° S 22:42:25 10° SE visible
01 May - 00:56:29 10° SW 00:58:49 14° S 01:01:23 10° SSE night (unlit)
01 May - 20:38:44 10° SSW 20:41:03 12° SSE 20:43:07 10° SE visible
01 May - 22:57:24 10° SW 23:00:18 16° S 23:03:09 10° SE visible
